Location: Albany
(35.0170°S, 117.8920°E)
Time: 23:54:56
(UTC+08:00)

S-56A Canister/Altair - Pass Details

Date: 27 June 2021
Orbit: 632 x 2501 km, 38.9° (Epoch: 24 July)

Event Time Altitude Azimuth Distance (km) Brightness Sun altitude
Rises 17:32:13 0° 257° (WSW) 5,930 13.0 -5.7°
Reaches altitude 10° 17:35:55 10° 255° (WSW) 5,046 12.5 -6.3°
Maximum altitude 17:51:13 83° 166° (SSE) 2,487 10.0 -9.2°
Drops below altitude 10° 18:04:58 10° 77° (ENE) 4,601 11.0 -11.8°
Enters shadow 18:06:46 - 76° (ENE) 5,047 11.2 -12.2°
